Content
SEND FEEDBACK

Daily
Averages
Monthly
Summary
United States of America

PYGA BEACH, GUAM


Home > North America > United States > Guam
Elevation: 20 feet     Latitude: 13 17N     Longitude: 144 39E

WEATHER
 
SELECT A DAY
Number of Records: 341,631;   Date Range: 1/1/95 - 7/20/14
 
SHARE

PRINT THIS DATA

[ ← Previous Day ]
WEATHER ALMANAC - MAY 13, 2013
[ Next Day → ]
[ °C ]   °F
Weather ElementAverageHighLow
Temperature80.6 °F86 °F (10:58 am)77 °F (1:57 am)
Dewpoint75.2 °F77 °F (8:57 am)73.4 °F (3:27 pm)
Humidity83.8 %94 % (1:55 am)70 % (10:58 am)
Barometer29.86 in29.89 in (9:47 pm)29.82 in (2:55 pm)
Wind Speed9.6 mph15 mph (3:27 pm)
Wind Gust20.7 mph (3:27 pm)
Weather ElementAverage
Visibility9.4 mi
Wind DirectionESE (114.5 °)

Weather ElementTotal
Precipitation0.03 in
Cooling Degree Days16.5 (Base 65)
Growing Degree Days31.5 (Base 50)
Averaged from 105 records on May 13, 2013
WEATHER CONDITIONS BREAKOUT
WIND DIRECTION BREAKOUT
WEATHER BY HOUR - MAY 13, 2013
[ °C ]   °F
Local TimeTemperatureDewpointHumidityBarometerVisibilityWind DirectionWind SpeedGust SpeedPrecipitationEventsConditions
1:35 AM78.8 °F75.2 °F89 %29.86 in10.0 miEast (100°)5.8 mphMostly Cloudy
1:45 AM78.8 °F75.2 °F89 %29.86 in10.0 miSE (130°)9.2 mphMostly Cloudy
1:55 AM77.2 °F75.2 °F94 %29.85 in10.0 miSSE (150°)5.8 mphOvercast
1:57 AM77.0 °F75.2 °F94 %29.85 in10.0 miSE (140°)5.8 mphOvercast
1:59 AM77.0 °F75.2 °F94 %29.85 in10.0 miSE (130°)6.9 mphOvercast
2:01 AM77.0 °F75.2 °F94 %29.85 in10.0 miSE (130°)6.9 mphMostly Cloudy
2:02 AM77.0 °F75.2 °F94 %29.85 in10.0 miSE (130°)6.9 mphMostly Cloudy
2:06 AM77.0 °F75.2 °F94 %29.85 in10.0 miSE (140°)6.9 mphMostly Cloudy
2:09 AM77.0 °F75.2 °F94 %29.85 in10.0 miSE (140°)5.8 mphScattered Clouds
2:55 AM77.4 °F75.2 °F93 %29.84 in10.0 miESE (110°)4.6 mphScattered Clouds
3:01 AM77.0 °F75.2 °F94 %29.84 in10.0 miESE (110°)3.5 mphMostly Cloudy
3:06 AM78.8 °F75.2 °F89 %29.84 in10.0 miESE (110°)4.6 mphMostly Cloudy
3:16 AM78.8 °F75.2 °F89 %29.83 in10.0 miEast (100°)4.6 mphMostly Cloudy
3:26 AM78.8 °F75.2 °F89 %29.83 in10.0 miEast (100°)6.9 mphOvercast
3:32 AM78.8 °F75.2 °F89 %29.83 in10.0 miEast (90°)10.4 mphMostly Cloudy
3:43 AM78.8 °F75.2 °F89 %29.83 in10.0 miEast (90°)10.4 mphScattered Clouds
3:55 AM79.0 °F74.8 °F87 %29.83 in10.0 miESE (110°)8.1 mphPartly Cloudy
4:55 AM79.2 °F75.0 °F87 %29.84 in10.0 miEast (100°)8.1 mphScattered Clouds
5:17 AM78.8 °F75.2 °F89 %29.84 in10.0 miESE (110°)8.1 mphMostly Cloudy
5:23 AM78.8 °F75.2 °F89 %29.84 in10.0 miEast (100°)8.1 mphMostly Cloudy
5:34 AM78.8 °F75.2 °F89 %29.84 in10.0 miEast (90°)9.2 mphMostly Cloudy
5:41 AM78.8 °F75.2 °F89 %29.85 in10.0 miEast (100°)8.1 mphMostly Cloudy
5:46 AM78.8 °F75.2 °F89 %29.85 in10.0 miEast (100°)8.1 mphMostly Cloudy
5:53 AM78.8 °F75.2 °F89 %29.85 in10.0 miEast (100°)9.2 mphScattered Clouds
5:55 AM79.3 °F75.4 °F88 %29.85 in10.0 miESE (110°)9.2 mphMostly Cloudy
6:04 AM78.8 °F75.2 °F89 %29.85 in10.0 miEast (100°)8.1 mphMostly Cloudy
6:08 AM78.8 °F75.2 °F89 %29.85 in10.0 miEast (100°)8.1 mphMostly Cloudy
6:10 AM78.8 °F75.2 °F89 %29.85 in10.0 miEast (100°)9.2 mphScattered Clouds
6:11 AM78.8 °F75.2 °F89 %29.85 in10.0 miESE (110°)8.1 mphMostly Cloudy
6:13 AM78.8 °F75.2 °F89 %29.85 in10.0 miESE (110°)9.2 mphScattered Clouds
6:16 AM78.8 °F75.2 °F89 %29.85 in10.0 miESE (110°)8.1 mphMostly Cloudy
6:20 AM78.8 °F75.2 °F89 %29.85 in10.0 miESE (110°)9.2 mphScattered Clouds
6:22 AM78.8 °F75.2 °F89 %29.85 in10.0 miEast (100°)10.4 mphMostly Cloudy
6:24 AM78.8 °F75.2 °F89 %29.85 in10.0 miESE (110°)9.2 mphScattered Clouds
6:48 AM80.6 °F75.2 °F84 %29.86 in10.0 miESE (120°)9.2 mphMostly Cloudy
6:52 AM80.6 °F75.2 °F84 %29.86 in10.0 miESE (120°)10.4 mphScattered Clouds
6:53 AM80.6 °F75.2 °F84 %29.86 in10.0 miESE (110°)10.4 mphRainLight Rain
6:55 AM80.4 °F74.8 °F83 %29.86 in10.0 miESE (110°)11.5 mph0.00 inRainLight Rain
7:04 AM80.6 °F75.2 °F84 %29.86 in10.0 miEast (100°)6.9 mphScattered Clouds
7:05 AM80.6 °F75.2 °F84 %29.86 in10.0 miEast (100°)6.9 mphMostly Cloudy
7:07 AM80.6 °F75.2 °F84 %29.86 in10.0 miEast (90°)6.9 mphMostly Cloudy
7:19 AM80.6 °F75.2 °F84 %29.87 in10.0 miSE (130°)11.5 mphMostly Cloudy
7:31 AM80.6 °F75.2 °F84 %29.87 in10.0 miESE (120°)10.4 mphMostly Cloudy
7:55 AM81.3 °F75.6 °F83 %29.88 in10.0 miESE (120°)8.1 mph0.00 inMostly Cloudy
8:10 AM82.4 °F75.2 °F79 %29.88 in10.0 miESE (110°)11.5 mphScattered Clouds
8:41 AM82.4 °F75.2 °F79 %29.88 in10.0 miESE (120°)8.1 mphMostly Cloudy
8:45 AM82.4 °F75.2 °F79 %29.88 in10.0 miESE (120°)9.2 mphMostly Cloudy
8:49 AM82.4 °F75.2 °F79 %29.88 in10.0 miESE (120°)12.7 mphMostly Cloudy
8:55 AM83.7 °F76.1 °F78 %29.88 in10.0 miESE (120°)10.4 mphMostly Cloudy
8:57 AM84.2 °F77.0 °F79 %29.88 in10.0 miESE (110°)11.5 mphScattered Clouds
9:07 AM82.4 °F75.2 °F79 %29.88 in10.0 miEast (100°)10.4 mphMostly Cloudy
9:13 AM82.4 °F77.0 °F84 %29.88 in10.0 miESE (120°)11.5 mphScattered Clouds
9:16 AM82.4 °F77.0 °F84 %29.88 in10.0 miESE (120°)12.7 mphMostly Cloudy
9:31 AM84.2 °F75.2 °F74 %29.88 in10.0 miESE (120°)12.7 mphMostly Cloudy
9:54 AM84.2 °F77.0 °F79 %29.88 in10.0 miEast (90°)11.5 mphScattered Clouds
9:55 AM84.6 °F76.3 °F76 %29.88 in10.0 miEast (100°)12.7 mphScattered Clouds
9:56 AM84.2 °F77.0 °F79 %29.88 in10.0 miEast (100°)12.7 mphMostly Cloudy
10:25 AM84.2 °F75.2 °F74 %29.88 in10.0 miESE (110°)11.5 mphScattered Clouds
10:26 AM84.2 °F75.2 °F74 %29.88 in10.0 miESE (110°)12.7 mphMostly Cloudy
10:48 AM84.2 °F75.2 °F74 %29.88 in10.0 miESE (110°)11.5 mphMostly Cloudy
10:51 AM84.2 °F75.2 °F74 %29.88 in10.0 miESE (120°)13.8 mphMostly Cloudy
10:55 AM84.9 °F75.7 °F74 %29.88 in10.0 miESE (120°)12.7 mphMostly Cloudy
10:58 AM86.0 °F75.2 °F70 %29.88 in10.0 miESE (120°)12.7 mphScattered Clouds
11:00 AM84.2 °F75.2 °F74 %29.88 in10.0 miESE (120°)12.7 mphMostly Cloudy
11:03 AM84.2 °F75.2 °F74 %29.87 in10.0 miESE (120°)12.7 mphScattered Clouds
11:29 AM86.0 °F75.2 °F70 %29.87 in10.0 miESE (110°)12.7 mphMostly Cloudy
11:36 AM86.0 °F75.2 °F70 %29.87 in10.0 miESE (110°)10.4 mphScattered Clouds
11:44 AM84.2 °F75.2 °F74 %29.87 in10.0 miSE (130°)11.5 mphMostly Cloudy
11:55 AM84.9 °F75.7 °F74 %29.87 in10.0 miESE (120°)12.7 mphMostly Cloudy
12:00 PM86.0 °F75.2 °F70 %29.86 in10.0 miEast (100°)10.4 mphScattered Clouds
12:55 PM85.3 °F76.3 °F74 %29.85 in10.0 miESE (110°)10.4 mphScattered Clouds
1:55 PM84.9 °F76.1 °F75 %29.84 in10.0 miEast (100°)8.1 mphScattered Clouds
2:55 PM85.5 °F76.5 °F74 %29.82 in10.0 miEast (90°)9.2 mphClear
3:27 PM84.2 °F73.4 °F70 %29.82 in9.0 miSE (140°)15.0 mph20.7 mphRainLight Rain
3:34 PM78.8 °F73.4 °F83 %29.82 in2.5 miSSE (150°)10.4 mphRainLight Rain
3:35 PM78.8 °F73.4 °F83 %29.82 in2.5 miSSE (150°)10.4 mphRainLight Rain
3:36 PM78.8 °F73.4 °F83 %29.82 in2.0 miSSE (150°)10.4 mphRainLight Rain
3:38 PM78.8 °F73.4 °F83 %29.82 in2.0 miSSE (150°)10.4 mphHaze
3:39 PM78.8 °F73.4 °F83 %29.82 in2.0 miSSE (150°)10.4 mphRainLight Rain
3:42 PM77.0 °F73.4 °F89 %29.82 in2.5 miSSE (150°)8.1 mphRainLight Rain
3:44 PM77.0 °F73.4 °F89 %29.82 in3.0 miSouth (170°)6.9 mphRainLight Rain
3:51 PM78.8 °F73.4 °F83 %29.82 in9.0 miSSE (160°)6.9 mphOvercast
3:55 PM78.6 °F74.7 °F88 %29.82 in10.0 miSSE (160°)5.8 mph0.03 inMostly Cloudy
3:59 PM78.8 °F75.2 °F89 %29.82 in10.0 miSSE (150°)4.6 mphMostly Cloudy
4:55 PM82.4 °F75.7 °F80 %29.82 in10.0 miEast (100°)5.8 mphPartly Cloudy
5:55 PM81.3 °F75.7 °F83 %29.83 in10.0 miEast (90°)6.9 mphPartly Cloudy
6:55 PM80.6 °F75.9 °F86 %29.83 in10.0 miEast (90°)10.4 mphScattered Clouds
7:54 PM80.6 °F75.2 °F84 %29.85 in10.0 miEast (80°)10.4 mphRainRain
7:55 PM80.2 °F75.6 °F86 %29.85 in10.0 miENE (70°)11.5 mph0.00 inRainLight Rain
7:59 PM80.6 °F75.2 °F84 %29.85 in10.0 miEast (90°)15.0 mphRainLight Rain
8:00 PM80.6 °F75.2 °F84 %29.86 in10.0 miEast (100°)12.7 mphRainLight Rain
8:01 PM80.6 °F75.2 °F84 %29.86 in10.0 miESE (110°)10.4 mphRainLight Rain
8:05 PM80.6 °F75.2 °F84 %29.86 in10.0 miESE (110°)11.5 mphMostly Cloudy
8:08 PM78.8 °F75.2 °F89 %29.86 in10.0 miESE (120°)10.4 mphMostly Cloudy
8:48 PM80.6 °F75.2 °F84 %29.87 in10.0 miESE (110°)8.1 mphMostly Cloudy
8:55 PM80.1 °F75.0 °F85 %29.87 in10.0 miESE (110°)8.1 mph0.00 inMostly Cloudy
9:14 PM80.6 °F75.2 °F84 %29.88 in10.0 miESE (120°)11.5 mphScattered Clouds
9:15 PM80.6 °F75.2 °F84 %29.88 in10.0 miESE (120°)12.7 mphMostly Cloudy
9:16 PM80.6 °F75.2 °F84 %29.88 in10.0 miESE (120°)11.5 mphScattered Clouds
9:38 PM80.6 °F75.2 °F84 %29.88 in8.0 miEast (100°)12.7 mphRainRain
9:41 PM80.6 °F77.0 °F89 %29.88 in6.0 miESE (120°)12.7 mphRainRain
9:47 PM78.8 °F73.4 °F83 %29.89 in6.0 miESE (110°)10.4 mphHaze
9:55 PM79.3 °F74.7 °F86 %29.88 in10.0 miESE (120°)10.4 mph0.00 inScattered Clouds
10:55 PM79.3 °F75.2 °F87 %29.89 in10.0 miEast (100°)8.1 mphClear
11:55 PM79.7 °F75.2 °F86 %29.88 in10.0 miESE (110°)10.4 mphScattered Clouds
Hourly data recorded from PGUA, located miles away from Pyga Beach, Guam







STORIES FROM OUR PARTNERS